[Date Prev][Date Next][Thread Prev][Thread Next] - [Date Index][Thread Index][Author Index]

2 Line ISS Keps 1-2



ISS
1 25544U 98067A   02002.16666667  .00064709  00000-0  73435-3 0  9124
2 25544  51.6390 167.4124 0002676  69.2344 274.1317 15.61735329178126


----
Via the sarex mailing list at AMSAT.ORG courtesy of AMSAT-NA.
To unsubscribe, send "unsubscribe sarex" to Majordomo@amsat.org



AMSAT Top AMSAT Home